Location: Wellington
(41.3000°S, 174.7830°E)
Time: 22:28:12
(UTC+12:00)

Cosmos 841 Rocket - Pass Details

Date: 24 January 2019
Orbit: 746 x 773 km, 74.0° (Epoch: 21 April)

Event Time Altitude Azimuth Distance (km) Brightness Sun altitude
Rises 22:54:25 0° 206° (SSW) 3,286 8.3 -19.2°
Reaches altitude 10° 22:56:54 10° 212° (SSW) 2,351 7.2 -19.5°
Maximum altitude 23:01:58 45° 283° (WNW) 1,060 4.4 -20.1°
Enters shadow 23:04:50 23° 342° (NNW) 1,591 4.8 -20.4°
